DMSP F-17

operational
NORAD ID: 29522 Int'l Des: 2006-050 Owner: AFSMC Country: US
LEOCIRCULARRETROGRADESSO

About DMSP F-17

Description loading...

Live Position

Loading 3D Globe...

Upcoming Passes

Altitude History

Altitude vs Time

uPlot chart will show altitude changes over time

Two-Line Element Set

1 29522U 06050A 26015.85508999 .00000107 00000-0 77678-4 0 9995
2 29522 98.7395 25.5346 0010904 128.0716 232.1443 14.14936167990871
Epoch: Jan 15, 2026 • Age: 6 hours

Current Status

Altitude 870.0 km
Velocity 7.41 km/s
Sub-Earth Point -62.55°S, 31.7°E
Launch Date Nov 4, 2006
Age 19.2 years
Type other

Technical Details

Classification Payload
Mass 1217.00 kg
Dry Mass 1217.00 kg
Total Mass 1217.00 kg
Length 4.40 m
Diameter 1.20 m
Span 6.60 m
Shape Box + Pan
Manufacturer LMEW
Bus Type Block 5D
Phase Status In Orbit
Owner/State AFSMC/US

Large Constellations

Loading constellations...